Weather History for Wautoma, WI

Change the Weather History Date:

Thursday, August 14, 2014

  Actual Average (KPCZ) Record (KPCZ)
Temperature  
Mean Temperature 59 °F -  
Max Temperature 73 °F 80 °F 97 °F (1988)
Min Temperature 45 °F 57 °F 37 °F (1964)
Degree Days  
Heating Degree Days 6    
Growing Degree Days 9 (Base 50)    
Moisture  
Dew Point 47 °F    
Average Humidity 72    
Maximum Humidity 97    
Minimum Humidity 30    
Precipitation  
Precipitation 0.00 in - - ()
Sea Level Pressure  
Sea Level Pressure 30.12 in    
Wind  
Wind Speed 1 mph (North)    
Max Wind Speed 7 mph    
Max Gust Speed -    
Visibility 9 miles    
Events Fog    
Averages and records for this station are not official NWS values.
T = Trace of Precipitation, MM = Missing Value Source: NWS Daily Summary

Daily Weather History Graph

Daily Weather History Graph

Search for Another Location

Airport:

Trip Planner

Search our weather history database for the weather conditions in past years. The results will help you decide how hot, cold, wet, or windy it might be!

Date:

Astronomy

Aug. 14, 2014 Rise Set
Actual Time 5:59 AM CDT 8:03 PM CDT
Civil Twilight 5:28 AM CDT 8:34 PM CDT
Nautical Twilight 4:49 AM CDT 9:12 PM CDT
Astronomical Twilight 4:07 AM CDT 9:55 PM CDT
Moon 10:13 PM CDT (8/14) 10:48 AM CDT (8/14)
Length of Visible Light 15h 06m
Length of Day
14h 03m
Waning Gibbous, 79% of the Moon is Illuminated
Aug 14
Waning Gibbous
Aug 17
Last Quarter
Aug 25
New
Sep 2
First Quarter
Sep 8
Full

Hourly Weather History & Observations

Time (CDT) Temp. Dew Point Humidity Pressure Visibility Wind Dir Wind Speed Gust Speed Precip Events Conditions
12:56 AM 57.2 °F 51.8 °F 82% 30.12 in 10.0 mi Calm Calm - N/A   Clear
1:56 AM 54.9 °F 50.9 °F 86% 30.11 in 10.0 mi Calm Calm - N/A   Clear
2:45 AM 53.6 °F 50.0 °F 88% 30.13 in 10.0 mi Calm Calm - N/A   Mostly Cloudy
2:56 AM 52.0 °F 50.0 °F 93% 30.12 in 10.0 mi Calm Calm - N/A   Mostly Cloudy
3:03 AM 53.6 °F 50.0 °F 88% 30.14 in 10.0 mi North 4.6 mph - N/A   Mostly Cloudy
3:10 AM 51.8 °F 50.0 °F 94% 30.14 in 10.0 mi Calm Calm - N/A   Scattered Clouds
3:22 AM 53.6 °F 51.8 °F 94% 30.14 in 10.0 mi Calm Calm - N/A   Mostly Cloudy
3:45 AM 51.8 °F 50.0 °F 94% 30.13 in 10.0 mi Calm Calm - N/A   Scattered Clouds
3:56 AM 50.9 °F 48.9 °F 93% 30.12 in 10.0 mi Calm Calm - N/A   Partly Cloudy
4:56 AM 48.9 °F 46.9 °F 93% 30.13 in 10.0 mi Calm Calm - N/A   Clear
5:56 AM 45.9 °F 45.0 °F 97% 30.15 in 10.0 mi Calm Calm - N/A   Clear
6:01 AM 46.4 °F 44.6 °F 93% 30.16 in 1.2 mi Calm Calm - N/A   Clear
6:05 AM 46.4 °F 44.6 °F 93% 30.16 in 0.2 mi Calm Calm - N/A Fog Fog
6:14 AM 46.4 °F 44.6 °F 93% 30.16 in 0.8 mi Calm Calm - N/A   Clear
6:16 AM 46.4 °F 44.6 °F 93% 30.16 in 4.0 mi Calm Calm - N/A   Clear
6:56 AM 50.0 °F 46.4 °F 87% 30.17 in 10.0 mi Calm Calm - N/A   Clear
7:56 AM 55.9 °F 50.9 °F 83% 30.16 in 10.0 mi Calm Calm - N/A   Mostly Cloudy
8:03 AM 55.4 °F 51.8 °F 88% 30.17 in 10.0 mi Calm Calm - N/A   Scattered Clouds
8:56 AM 61.9 °F 48.9 °F 62% 30.17 in 10.0 mi North 5.8 mph - N/A   Clear
9:56 AM 64.4 °F 44.6 °F 49% 30.17 in 10.0 mi NE 5.8 mph - N/A   Clear
10:56 AM 65.8 °F 41.0 °F 40% 30.16 in 10.0 mi NE 6.9 mph - N/A   Clear
11:56 AM 68.0 °F 41.0 °F 37% 30.14 in 10.0 mi Variable 4.6 mph - N/A   Clear
12:56 PM 71.6 °F 41.0 °F 33% 30.13 in 10.0 mi SSW 5.8 mph - N/A   Clear
1:56 PM 72.0 °F 38.8 °F 30% 30.11 in 10.0 mi Calm Calm - N/A   Clear
2:56 PM 73.9 °F 41.9 °F 32% 30.08 in 10.0 mi SW 4.6 mph - N/A   Clear
3:56 PM 73.4 °F 42.8 °F 33% 30.09 in 10.0 mi NW 5.8 mph - N/A   Clear
4:56 PM 72.9 °F 41.9 °F 33% 30.07 in 10.0 mi North 5.8 mph - N/A   Clear
5:56 PM 72.9 °F 41.9 °F 33% 30.06 in 10.0 mi NW 4.6 mph - N/A   Clear
6:56 PM 71.6 °F 44.6 °F 38% 30.06 in 10.0 mi NNE 3.5 mph - N/A   Clear
7:56 PM 63.9 °F 50.0 °F 61% 30.05 in 10.0 mi Calm Calm - N/A   Clear
8:56 PM 56.8 °F 50.9 °F 80% 30.05 in 10.0 mi Calm Calm - N/A   Clear
9:56 PM 53.6 °F 48.2 °F 82% 30.06 in 10.0 mi Calm Calm - N/A   Clear
10:56 PM 50.9 °F 46.9 °F 86% 30.06 in 10.0 mi Calm Calm - N/A   Clear
11:56 PM 48.9 °F 45.9 °F 89% 30.06 in 10.0 mi Calm Calm - N/A   Clear